Theta_e
345 342 341 340 338 337 336 337 338 338 339 339 340 341 341 342 343 342 343 337 338 341 344 347 350 351 351 348 345 344 343 343 343 342 341 340 338 338 337 337 337 337 337
346 341 341 339 338 338 337 337 337 336 337 339 340 341 340 340 340 344 342 342 334 337 341 345 349 352 352 351 347 344 343 343 342 342 341 340 338 337 337 336 336 336 336
349 347 341 340 339 341 345 342 343 339 337 338 339 340 339 341 338 340 339 341 339 331 334 339 342 345 348 350 349 347 344 343 342 342 341 340 339 338 337 336 336 336 336
349 348 342 340 340 340 338 339 338 336 336 337 338 337 337 339 341 341 338 339 338 337 333 332 336 339 342 345 348 349 348 345 343 342 341 341 339 338 337 336 336 336 336
344 347 342 342 345 339 340 339 339 339 335 335 334 337 338 337 338 336 339 341 343 340 338 333 330 332 335 339 343 347 348 348 346 344 343 341 340 339 337 337 336 336 336
346 347 344 346 343 338 338 337 339 339 337 335 330 331 336 336 338 338 337 337 338 342 343 343 342 335 327 333 337 342 346 347 347 347 345 343 341 339 338 337 337 337 336
347 347 344 345 345 340 340 342 340 338 336 338 334 333 334 338 338 336 337 337 337 338 340 340 340 339 340 329 333 338 343 345 346 346 344 343 342 339 338 338 337 337 336
349 346 346 343 343 340 342 343 343 337 336 338 332 331 326 331 335 337 339 339 342 341 340 342 342 344 346 344 340 333 338 342 344 344 343 342 341 340 339 339 338 337 337
348 348 347 346 344 343 340 342 343 341 334 337 339 331 323 322 329 336 341 342 345 344 343 343 344 346 347 347 342 337 327 329 336 341 342 341 340 339 339 338 338 338 337
346 347 348 347 346 343 341 342 342 342 340 334 337 336 337 336 328 326 336 343 345 344 347 346 345 346 346 347 341 332 322 320 324 333 338 339 339 339 339 338 338 337 337
347 346 347 348 347 346 345 343 341 342 340 338 334 335 337 338 338 332 327 330 338 342 343 344 343 345 346 347 347 341 322 318 318 324 330 334 336 336 337 337 337 337 337
343 345 346 347 348 347 347 345 345 343 342 340 339 337 334 335 333 333 331 333 333 336 340 345 348 347 348 348 341 326 321 315 316 319 323 327 330 333 334 336 336 337 337
335 340 345 345 345 347 347 347 345 344 342 342 340 338 338 336 337 334 332 332 332 337 340 345 347 348 347 349 346 327 325 315 313 315 318 320 323 326 330 332 335 336 336
311 314 320 342 346 345 346 347 345 344 344 342 342 340 338 338 337 336 332 330 328 333 337 341 345 347 348 348 342 323 339 314 311 311 312 313 316 319 322 326 329 331 332
308 310 312 314 331 343 343 343 343 343 343 343 342 342 340 338 338 337 337 336 333 329 332 340 340 349 349 351 342 348 347 329 310 308 308 309 312 315 318 321 322 324 325
305 307 310 310 314 326 338 339 340 342 342 342 341 341 341 340 339 339 339 341 341 337 332 339 340 344 348 346 342 346 346 324 309 306 305 306 308 311 315 317 318 319 320
305 305 306 308 310 313 315 332 336 337 337 340 341 340 339 342 339 340 342 342 341 340 334 338 341 343 347 348 347 345 342 344 341 307 305 305 305 307 310 312 312 313 314
303 305 305 305 308 310 314 309 325 335 335 335 338 340 339 339 340 341 342 342 341 341 337 331 336 339 341 343 345 343 342 338 340 318 306 305 304 304 305 306 307 307 308
301 301 302 304 306 308 310 307 306 307 316 335 339 339 339 340 339 341 341 339 340 339 338 333 331 334 335 339 340 341 338 337 331 317 306 302 302 303 303 304 304 304 304
299 299 301 302 304 305 308 305 304 303 304 310 333 337 339 338 336 336 337 336 335 335 334 332 330 329 331 334 334 330 329 325 325 323 313 307 304 303 301 301 301 302 301
298 298 298 299 301 302 305 301 301 300 302 307 316 327 331 329 319 326 335 336 333 331 330 329 330 327 326 320 322 327 323 327 322 324 320 312 310 307 307 300 303 301 299
299 298 297 298 298 299 295 294 295 299 301 307 312 319 323 318 317 302 303 305 318 323 322 323 324 325 325 329 329 325 324 308 313 315 314 314 309 309 309 308 305 301 298
300 298 298 298 297 298 294 293 293 299 302 305 309 314 320 321 317 325 306 301 303 302 309 324 324 327 326 329 329 324 324 318 323 324 313 307 305 306 309 307 300 298 297
300 298 298 298 297 298 293 293 291 298 301 305 308 308 311 317 317 310 316 316 319 318 309 306 316 321 323 320 316 316 318 319 305 301 310 298 296 295 300 304 299 297 296
298 298 297 297 296 296 293 292 292 296 298 300 302 304 306 310 302 297 310 311 313 310 300 298 297 296 295 294 298 312 311 308 304 292 299 297 290 288 288 291 299 296 296
294 295 294 296 294 295 293 292 293 295 296 298 300 303 298 299 295 294 302 306 307 302 295 301 307 305 303 305 296 310 312 309 305 290 293 298 289 291 289 289 292 296 297
Wind_Speed
8 9 9 9 10 10 11 10 10 11 12 12 10 11 11 11 11 8 6 10 11 12 13 15 17 17 17 16 16 16 16 16 17 16 16 15 15 15 15 15 15 15 15
9 10 10 10 10 11 11 11 10 10 10 10 11 12 12 12 12 11 10 8 14 14 14 14 15 17 18 19 17 17 17 17 17 17 17 17 16 16 16 15 15 15 15
10 10 10 10 10 9 10 9 9 10 10 10 12 10 11 13 12 12 11 10 9 15 16 17 17 17 18 19 19 18 18 18 17 18 18 17 16 16 16 16 16 15 15
15 11 11 10 11 10 10 10 10 10 10 10 9 10 11 12 12 12 12 10 10 11 14 16 17 18 19 19 20 19 19 19 18 19 18 18 18 18 17 17 17 16 16
17 13 12 11 10 11 10 9 10 10 10 11 11 11 10 11 12 12 14 13 12 11 10 10 19 18 19 20 20 21 21 20 20 20 19 19 18 18 18 18 17 17 17
16 14 12 12 11 11 11 11 12 11 10 10 12 12 10 10 10 11 12 12 13 13 12 13 10 11 19 19 20 21 22 22 22 22 21 20 19 19 19 18 18 18 16
15 15 12 13 12 12 13 12 11 12 10 10 9 10 10 10 11 11 10 11 13 13 14 13 10 9 9 22 22 23 23 24 23 23 22 21 20 19 18 19 19 18 16
15 15 16 13 14 12 14 13 12 10 11 10 10 9 10 10 12 14 13 13 14 11 13 13 14 13 11 10 12 21 21 21 21 21 21 20 20 19 19 18 18 17 17
17 17 16 15 14 13 12 14 13 14 11 10 13 9 8 10 9 9 14 11 11 9 10 11 11 10 11 10 10 12 19 18 19 19 20 19 19 19 18 17 16 16 15
18 18 17 16 16 12 15 13 14 14 13 12 8 12 14 11 6 7 6 8 8 9 9 8 8 10 10 9 11 12 9 16 15 18 20 19 19 19 18 18 16 15 15
15 18 18 17 16 14 14 16 15 16 13 13 13 10 13 11 13 11 12 9 8 9 11 10 10 9 9 10 10 10 13 14 15 16 18 19 19 19 18 18 17 16 16
11 15 17 16 17 16 17 15 16 17 16 15 13 13 12 11 11 10 12 13 12 11 10 8 9 9 9 9 11 12 9 11 13 13 14 16 17 18 19 19 17 17 17
14 11 15 16 15 17 18 16 17 18 18 16 18 14 13 14 12 11 10 10 10 9 8 8 8 8 8 7 9 11 11 14 14 15 15 15 15 17 18 18 19 18 18
13 19 20 14 17 18 17 18 15 15 17 17 21 18 14 13 13 12 12 11 12 11 11 11 9 9 9 10 11 11 8 12 14 14 13 13 16 17 16 15 16 15 16
14 18 19 18 18 17 18 18 16 18 18 18 18 19 17 14 13 13 12 12 12 13 12 10 9 9 8 8 9 10 11 11 13 14 14 14 15 18 16 15 14 14 14
17 17 18 19 18 18 17 17 17 19 20 16 15 19 18 15 16 13 13 12 12 12 14 9 9 9 9 6 7 7 10 9 10 11 13 14 15 16 16 15 16 15 15
16 17 16 17 16 17 18 20 18 18 20 20 19 19 21 19 14 14 13 12 12 12 13 10 10 10 11 10 9 8 9 9 8 13 13 13 14 15 17 17 16 16 15
14 15 17 16 16 16 17 19 17 17 19 19 20 21 21 15 20 17 13 15 12 10 9 12 9 9 12 11 10 7 4 6 8 5 10 12 13 14 14 16 17 16 16
14 15 15 17 17 15 15 15 20 19 19 20 22 22 21 19 18 13 14 11 10 7 7 7 8 7 7 8 10 7 3 4 4 6 8 8 10 13 16 17 16 16 15
14 14 16 14 17 15 13 14 17 15 18 22 16 19 20 20 21 19 14 12 9 9 8 7 7 7 6 7 7 9 7 5 7 6 8 9 8 13 13 12 11 14 16
14 15 16 15 13 13 7 9 14 23 21 14 16 12 11 14 21 16 9 13 11 8 4 6 7 5 5 3 5 6 7 7 5 6 6 7 6 5 7 10 12 15 16
18 18 17 17 16 10 12 12 12 14 16 17 16 17 12 16 18 5 10 13 12 9 8 7 8 7 8 12 11 8 8 2 5 6 5 5 5 7 7 8 14 15 19
15 17 18 18 18 15 15 11 19 15 15 15 16 14 13 9 15 15 17 23 21 21 20 14 11 11 13 10 6 8 10 7 9 5 5 4 5 7 6 7 12 16 17
16 15 13 16 16 12 16 21 13 16 15 17 16 16 12 8 7 11 9 8 7 6 8 6 9 8 6 3 6 3 6 5 3 1 2 5 3 3 2 6 11 16 18
18 16 16 18 17 16 21 18 18 16 17 17 16 14 15 11 8 13 10 11 8 5 7 5 4 6 8 8 7 3 6 4 8 4 5 5 3 2 2 3 6 15 17
18 15 19 18 18 19 19 18 18 12 16 12 12 12 12 11 13 10 13 11 10 6 3 4 4 5 4 5 7 7 4 7 6 4 6 5 3 4 5 1 3 5 8
Wind_Direction
214 211 221 198 198 204 206 216 220 211 223 236 238 245 250 245 261 276 277 163 176 193 217 230 232 231 230 229 228 229 232 235 237 240 241 241 241 242 243 245 247 248 250
220 215 224 219 213 215 207 219 217 227 222 230 226 237 244 250 246 247 252 222 196 192 202 220 232 234 233 232 227 226 229 233 236 239 241 241 241 242 243 246 248 251 254
231 225 225 224 229 218 228 221 228 227 237 228 239 233 230 242 251 254 252 254 235 206 205 207 217 227 235 236 232 227 227 228 230 235 238 240 241 243 245 245 246 247 248
228 218 234 224 227 231 217 230 224 229 228 240 237 236 235 238 242 241 246 251 250 260 208 217 216 217 221 229 235 235 231 230 231 233 236 237 237 239 241 242 241 241 242
224 228 223 233 221 233 230 218 229 229 231 232 237 236 241 245 240 239 240 241 244 251 262 226 216 219 220 222 227 233 236 235 233 233 235 236 237 237 239 240 241 241 240
216 225 228 227 227 224 225 224 232 224 234 243 239 240 233 240 243 247 252 250 248 242 240 244 239 228 226 224 224 227 233 236 236 235 235 236 236 235 237 238 239 239 241
214 218 232 221 222 231 231 222 223 232 239 232 255 251 258 249 244 254 255 248 246 242 237 238 237 245 241 219 223 224 229 232 235 236 236 236 236 234 234 236 239 239 236
225 218 223 231 221 219 226 230 228 226 226 237 232 249 254 249 233 231 231 237 250 255 252 240 236 240 246 261 216 222 230 232 232 235 237 237 236 235 235 237 237 236 236
232 227 230 225 229 223 222 217 224 224 233 222 229 233 239 241 257 234 215 222 242 246 242 252 254 244 236 244 258 216 215 222 227 230 233 237 236 235 237 236 232 228 227
232 232 229 235 228 235 222 221 213 218 219 233 219 221 240 277 290 272 252 210 218 240 247 251 256 244 243 241 237 252 202 223 227 223 226 229 234 235 235 235 231 221 221
236 226 231 227 235 226 239 224 226 213 218 219 228 222 218 225 241 252 268 262 235 218 223 222 228 245 251 236 246 245 230 217 217 226 229 228 232 234 234 233 228 223 218
244 235 232 232 230 235 231 235 225 228 215 225 221 226 233 221 223 228 242 252 255 260 271 253 222 224 231 243 264 272 250 233 231 231 232 233 231 232 232 229 222 216 207
319 276 235 230 231 232 236 235 232 224 227 222 224 225 227 233 234 239 248 255 259 256 249 245 239 232 231 236 248 251 242 229 224 224 226 233 238 236 232 226 214 208 204
336 333 345 282 228 233 235 237 241 233 226 227 227 225 232 228 231 235 234 240 253 250 251 247 240 240 234 225 223 228 247 227 224 227 226 229 236 240 230 215 210 207 207
339 340 341 332 333 245 232 239 240 238 233 229 229 227 228 231 234 232 233 229 235 250 248 244 251 246 249 232 214 229 237 238 219 224 225 225 228 238 230 212 208 206 206
335 345 339 338 337 342 274 238 240 243 237 232 231 228 228 227 231 227 230 232 226 236 255 247 254 271 275 272 230 225 234 247 210 222 225 225 226 220 217 210 209 206 206
335 340 333 335 338 338 338 297 245 245 244 234 232 230 228 225 226 226 221 225 230 231 245 252 256 259 267 272 263 235 227 238 248 207 223 232 231 229 211 210 211 209 206
334 317 340 332 338 339 351 347 321 248 243 246 235 229 230 225 225 226 224 218 221 225 239 247 252 267 266 267 277 291 236 223 241 215 220 228 234 236 233 222 214 207 202
326 333 337 330 331 348 341 9 339 331 324 242 238 231 227 227 232 224 223 225 219 220 225 232 246 255 265 267 274 283 261 228 233 263 259 237 232 235 236 232 218 208 204
327 337 326 318 327 345 331 353 337 331 325 326 288 245 229 225 222 216 210 209 208 212 219 222 232 247 246 244 251 261 252 219 253 225 238 241 210 225 233 235 228 210 202
337 321 326 324 323 326 341 351 336 343 311 325 341 327 295 256 229 206 200 204 198 185 200 237 233 238 231 212 220 247 241 263 243 231 245 228 228 218 234 224 225 212 213
320 329 336 311 317 317 318 347 349 329 311 295 330 324 313 300 262 283 235 239 220 216 220 263 267 257 298 258 233 229 245 200 279 198 226 248 187 237 229 217 224 220 213
308 308 317 327 310 313 351 330 320 341 298 314 303 310 320 333 343 287 230 216 221 225 223 216 225 244 259 264 258 235 230 208 239 233 190 239 176 236 234 233 216 207 207
315 316 294 287 300 312 322 321 326 324 319 308 310 315 308 318 6 328 354 339 292 224 217 199 209 230 233 316 303 310 301 296 334 321 148 256 171 244 234 229 212 213 209
319 314 313 309 319 311 303 327 326 326 320 304 309 307 321 330 356 337 316 321 306 323 350 332 276 285 260 220 214 266 265 259 280 246 213 162 202 229 254 204 222 209 209
318 316 313 309 306 305 307 312 324 324 303 299 307 308 337 327 310 323 313 299 293 275 272 315 324 309 298 284 209 223 260 251 256 317 208 194 147 135 300 223 218 206 208